Date String (YYYY-MM-DD hh:mm:ss) UTC,Instrument flags,absolute air pressure of the measurement (hPa),sample flow rate (lpm),inlet stack bypass flow (lpm),air temperature of the measurement (°C),ambient temperature measured by the external sensor (°C),aerosol sample conditioner tube jacket temperature (°C),OPC LED temperature (°C),internal box temperature (°C),relative humidity of the measurement (%),span deviation,mass concentration of particles derived from Lorenz-Mie calculation of OPC scattering (μg/m³),mass concentration of particles derived from Lorenz-Mie calculation of OPC scattering (μg/m³),mass concentration of particles derived from Lorenz-Mie calculation of OPC scattering (μg/m³)
DateTimeUTC,F1_M11,P_M11,Q1_M11,Q2_M11,T1_M11,T2_M11,T3_M11,T4_M11,T5_M11,U1_M11,ZSPAN_M11,X0_M11,X2_M11,X1_M11
2023-08-02 09:00:00,SystemResetWarning,0833.4,5.01,000.00,029.5,027.5,000.0,038.1,031.0,32.0,0000.0,0008.17,0003.79,0003.19
2023-08-02 09:01:00,SystemResetWarning,0833.4,5.01,000.00,029.5,027.6,000.0,038.1,031.0,31.7,0000.0,0008.34,0003.78,0003.18
2023-08-02 09:02:00,SystemResetWarning,0833.4,5.01,000.00,029.6,027.8,000.0,038.1,031.0,32.0,0000.0,0008.31,0003.75,0003.16
2023-08-02 09:03:00,SystemResetWarning,0833.4,4.99,000.00,029.6,027.9,000.0,038.1,031.1,31.8,0000.0,0008.37,0003.72,0003.15
2023-08-02 09:04:00,SystemResetWarning,0833.4,4.99,000.00,029.6,028.0,000.0,038.1,031.1,31.6,0000.0,0007.79,0003.72,0003.15
2023-08-02 09:05:00,SystemResetWarning,0833.4,5.01,000.00,029.6,028.1,000.0,038.1,031.1,32.4,0000.0,0007.75,0003.69,0003.14
2023-08-02 09:06:00,SystemResetWarning,0833.4,5.00,000.00,029.6,028.1,000.0,038.1,031.1,32.8,0000.0,0007.78,0003.68,0003.11
2023-08-02 09:07:00,SystemResetWarning,0833.4,5.00,000.00,029.6,028.2,000.0,038.1,031.2,32.9,0000.0,0007.83,0003.69,0003.10
2023-08-02 09:08:00,SystemResetWarning,0833.4,5.01,000.00,029.7,028.2,000.0,038.1,031.2,31.8,0000.0,0007.80,0003.66,0003.08
2023-08-02 09:09:00,SystemResetWarning,0833.3,5.01,000.00,029.7,028.3,000.0,038.1,031.2,30.8,0000.0,0007.80,0003.67,0003.06
2023-08-02 09:10:00,SystemResetWarning,0833.3,5.00,000.00,029.7,028.3,000.0,038.1,031.3,30.0,0000.0,0007.75,0003.66,0003.02
2023-08-02 09:11:00,SystemResetWarning,0833.4,4.99,000.00,029.7,028.4,000.0,038.1,031.3,30.0,0000.0,0007.50,0003.66,0002.98
2023-08-02 09:12:00,SystemResetWarning,0833.4,5.00,000.00,029.7,028.4,000.0,038.2,031.3,30.3,0000.0,0006.99,0003.61,0002.95
2023-08-02 09:13:00,SystemResetWarning,0833.4,5.00,000.00,029.8,028.4,000.0,038.2,031.3,30.9,0000.0,0006.89,0003.58,0002.91
2023-08-02 09:14:00,SystemResetWarning,0833.4,5.00,000.00,029.8,028.5,000.0,038.2,031.3,30.6,0000.0,0006.50,0003.55,0002.89
2023-08-02 09:15:00,SystemResetWarning,0833.4,5.01,000.00,029.8,028.5,000.0,038.2,031.3,28.5,0000.0,0006.44,0003.54,0002.86
2023-08-02 09:16:00,SystemResetWarning,0833.4,5.01,000.00,029.8,028.5,000.0,038.2,031.4,27.0,0000.0,0006.35,0003.55,0002.88
2023-08-02 09:17:00,SystemResetWarning,0833.4,5.00,000.00,029.8,028.5,000.0,038.2,031.4,27.0,0000.0,0006.35,0003.57,0002.92
2023-08-02 09:18:00,SystemResetWarning,0833.4,4.99,000.00,029.9,028.6,000.0,038.2,031.4,28.9,0000.0,0006.23,0003.55,0002.92
2023-08-02 09:19:00,SystemResetWarning,0833.4,5.00,000.00,029.9,028.6,000.0,038.3,031.4,29.2,0000.0,0006.24,0003.57,0002.94
2023-08-02 09:20:00,SystemResetWarning,0833.4,5.01,000.00,029.9,028.6,000.0,038.3,031.4,28.2,0000.0,0006.06,0003.56,0002.98
2023-08-02 09:21:00,SystemResetWarning,0833.4,5.00,000.00,029.9,028.6,000.0,038.3,031.5,28.0,0000.0,0006.16,0003.59,0003.01
2023-08-02 09:22:00,SystemResetWarning,0833.4,5.00,000.00,029.9,028.6,000.0,038.3,031.5,28.0,0000.0,0006.07,0003.56,0003.02
2023-08-02 09:23:00,SystemResetWarning,0833.4,4.99,000.00,029.9,027.6,000.0,038.3,031.4,27.5,0000.0,0006.46,0003.60,0003.04
2023-08-02 09:24:00,SystemResetWarning,0833.4,5.00,000.00,029.9,025.9,000.0,038.1,031.1,27.5,0000.0,0006.61,0003.65,0003.07
2023-08-02 09:25:00,SystemResetWarning,0833.4,5.01,000.00,029.8,025.4,000.0,038.1,030.9,27.6,0000.0,0007.54,0003.70,0003.10
2023-08-02 09:26:00,SystemResetWarning,0833.4,5.01,000.00,029.6,025.5,000.0,038.1,030.7,28.6,0000.0,0007.45,0003.68,0003.11
2023-08-02 09:27:00,SystemResetWarning,0833.4,5.00,000.00,029.5,025.9,000.0,038.1,030.7,31.1,0000.0,0007.44,0003.66,0003.11
2023-08-02 09:28:00,SystemResetWarning,0833.4,5.00,000.00,029.5,026.3,000.0,038.1,030.8,32.0,0000.0,0007.43,0003.64,0003.10
2023-08-02 09:29:00,SystemResetWarning,0833.4,5.00,000.00,029.5,026.7,000.0,038.1,030.9,31.8,0000.0,0007.33,0003.60,0003.09
2023-08-02 09:30:00,SystemResetWarning,0833.4,5.00,000.00,029.5,027.0,000.0,038.1,030.9,32.6,0000.0,0007.20,0003.54,0003.04
2023-08-02 09:31:00,SystemResetWarning,0833.4,4.99,000.00,029.5,027.3,000.0,038.1,031.0,31.1,0000.0,0007.18,0003.51,0002.98
2023-08-02 09:32:00,SystemResetWarning,0833.3,5.00,000.00,029.5,027.5,000.0,038.1,031.0,30.0,0000.0,0007.50,0003.44,0002.95
2023-08-02 09:33:00,SystemResetWarning,0833.3,5.00,000.00,029.5,027.7,000.0,038.1,031.0,29.8,0000.0,0007.38,0003.41,0002.93
2023-08-02 09:34:00,SystemResetWarning,0833.3,5.00,000.00,029.5,027.8,000.0,038.1,031.1,29.9,0000.0,0007.16,0003.38,0002.91
2023-08-02 09:35:00,SystemResetWarning,0833.4,5.00,000.00,029.5,028.0,000.0,038.0,031.1,31.3,0000.0,0007.02,0003.31,0002.84
2023-08-02 09:36:00,SystemResetWarning,0833.2,5.00,000.00,029.6,028.1,000.0,038.1,031.1,29.9,0000.0,0005.82,0003.19,0002.71
2023-08-02 09:37:00,SystemResetWarning,0833.2,5.00,000.00,029.6,028.1,000.0,038.1,031.2,29.3,0000.0,0005.50,0003.11,0002.58
2023-08-02 09:38:00,SystemResetWarning,0833.2,5.01,000.00,029.6,028.2,000.0,038.1,031.2,29.0,0000.0,0005.37,0003.05,0002.52
2023-08-02 09:39:00,SystemResetWarning,0833.2,5.00,000.00,029.6,028.3,000.0,038.1,031.2,28.9,0000.0,0005.34,0003.00,0002.48
2023-08-02 09:40:00,SystemResetWarning,0833.2,4.99,000.00,029.7,028.3,000.0,038.1,031.2,28.7,0000.0,0005.35,0002.97,0002.45
2023-08-02 09:41:00,SystemResetWarning,0833.2,4.99,000.00,029.7,028.4,000.0,038.1,031.2,28.7,0000.0,0005.43,0002.99,0002.40
2023-08-02 09:42:00,SystemResetWarning,0833.2,4.99,000.00,029.7,028.4,000.0,038.1,031.3,29.1,0000.0,0005.38,0002.95,0002.37
2023-08-02 09:43:00,SystemResetWarning,0833.2,4.99,000.00,029.7,028.4,000.0,038.1,031.3,29.5,0000.0,0004.97,0002.96,0002.31
2023-08-02 09:44:00,SystemResetWarning,0833.3,5.00,000.00,029.7,028.5,000.0,038.2,031.3,29.1,0000.0,0004.75,0002.95,0002.26
2023-08-02 09:45:00,SystemResetWarning,0833.3,5.00,000.00,029.8,028.5,000.0,038.2,031.3,29.0,0000.0,0004.82,0002.92,0002.19
2023-08-02 09:46:00,SystemResetWarning,0833.3,5.01,000.00,029.8,028.5,000.0,038.2,031.4,29.3,0000.0,0004.63,0002.86,0002.17
2023-08-02 09:47:00,SystemResetWarning,0833.3,5.01,000.00,029.8,028.6,000.0,038.2,031.4,28.9,0000.0,0004.64,0002.92,0002.23
2023-08-02 09:48:00,SystemResetWarning,0833.3,5.00,000.00,029.8,028.6,000.0,038.2,031.4,28.5,0000.0,0004.77,0003.00,0002.30
2023-08-02 09:49:00,SystemResetWarning,0833.4,4.99,000.00,029.8,028.6,000.0,038.2,031.4,28.6,0000.0,0004.98,0003.07,0002.33
2023-08-02 09:50:00,SystemResetWarning,0833.4,4.99,000.00,029.9,028.6,000.0,038.3,031.4,28.6,0000.0,0004.86,0003.06,0002.34
2023-08-02 09:51:00,SystemResetWarning,0833.4,4.99,000.00,029.9,028.6,000.0,038.3,031.5,28.4,0000.0,0004.90,0003.09,0002.37
2023-08-02 09:52:00,SystemResetWarning,0833.4,5.01,000.00,029.9,028.6,000.0,038.3,031.5,29.7,0000.0,0005.52,0003.13,0002.42
2023-08-02 09:53:00,SystemResetWarning,0833.4,4.99,000.00,029.9,027.4,000.0,038.2,031.4,28.6,0000.0,0006.93,0003.21,0002.47
2023-08-02 09:54:00,SystemResetWarning,0833.4,5.00,000.00,029.8,025.8,000.0,038.1,031.1,27.7,0000.0,0006.95,0003.24,0002.52
2023-08-02 09:55:00,SystemResetWarning,0833.3,5.01,000.00,029.7,025.4,000.0,038.0,030.8,27.6,0000.0,0007.18,0003.28,0002.55
2023-08-02 09:56:00,SystemResetWarning,0833.3,5.01,000.00,029.6,025.6,000.0,038.1,030.7,27.8,0000.0,0007.18,0003.31,0002.61
2023-08-02 09:57:00,SystemResetWarning,0833.3,5.00,000.00,029.5,026.0,000.0,038.1,030.7,27.4,0000.0,0007.35,0003.31,0002.65
2023-08-02 09:58:00,SystemResetWarning,0833.4,5.00,000.00,029.5,026.4,000.0,038.1,030.8,27.6,0000.0,0007.67,0003.32,0002.66
2023-08-02 09:59:00,SystemResetWarning,0833.4,5.00,000.00,029.5,026.7,000.0,038.1,030.8,27.8,0000.0,0007.72,0003.34,0002.66
